Weather History for Guymon, OK

Change the Weather History Date:

Monday, February 4, 2013

  Actual Average Record
Temperature  
Mean Temperature 45 °F 37 °F  
Max Temperature 60 °F 52 °F 69 °F (2008)
Min Temperature 30 °F 22 °F 4 °F (2011)
Degree Days  
Heating Degree Days 20 28  
Month to date heating degree days 93 112  
Since 1 July heating degree days 2551 2840  
Cooling Degree Days 0 0  
Month to date cooling degree days 0 0  
Year to date cooling degree days 0 0  
Moisture  
Dew Point 20 °F    
Average Humidity 39    
Maximum Humidity 56    
Minimum Humidity 22    
Precipitation  
Precipitation 0.00 in 0.02 in 0.12 in (2014)
Month to date precipitation 0.00 0.06  
Year to date precipitation 0.31 0.46  
Snow  
Snow 0.00 in - - ()
Month to date snowfall 0.0  
Since 1 July snowfall 3.2  
Snow Depth 0.00 in    
Sea Level Pressure  
Sea Level Pressure 29.89 in    
Wind  
Wind Speed 8 mph (NNW)    
Max Wind Speed 21 mph    
Max Gust Speed 25 mph    
Visibility 10 miles    
Events      
T = Trace of Precipitation, MM = Missing Value Source: NWS Daily Summary

Daily Weather History Graph

Daily Weather History Graph

Search for Another Location

Airport:

Trip Planner

Search our weather history database for the weather conditions in past years. The results will help you decide how hot, cold, wet, or windy it might be!

Date:

Astronomy

Feb. 04, 2013 Rise Set
Actual Time 7:45 AM CST 6:15 PM CST
Civil Twilight 7:18 AM CST 6:42 PM CST
Nautical Twilight 6:47 AM CST 7:13 PM CST
Astronomical Twilight 6:17 AM CST 7:43 PM CST
Moon 2:21 AM CST (2/4) 12:43 PM CST (2/4)
Length of Visible Light 11h 24m
Length of Day
10h 30m
Last Quarter, 37% of the Moon is Illuminated
Feb 4
Last Quarter
Feb 10
New
Feb 17
First Quarter
Feb 25
Full
Mar 4
Last Quarter

Hourly Weather History & Observations

Time (CST) Temp. Windchill Dew Point Humidity Pressure Visibility Wind Dir Wind Speed Gust Speed Precip Events Conditions
12:53 AM 43.0 °F 38.2 °F 21.9 °F 43% 29.76 in 10.0 mi NNW 8.1 mph - N/A   Clear
1:53 AM 42.1 °F 35.2 °F 25.0 °F 51% 29.75 in 10.0 mi North 12.7 mph - N/A   Clear
2:53 AM 39.9 °F 32.5 °F 23.0 °F 51% 29.77 in 10.0 mi NNW 12.7 mph - N/A   Clear
4:53 AM 37.9 °F 29.6 °F 19.0 °F 47% 29.83 in 10.0 mi North 13.8 mph - N/A   Clear
5:53 AM 37.0 °F 27.4 °F 18.0 °F 46% 29.87 in 10.0 mi North 17.3 mph - N/A   Clear
6:53 AM 35.1 °F 26.9 °F 19.0 °F 52% 29.91 in 10.0 mi North 11.5 mph - N/A   Clear
7:53 AM 34.0 °F 25.5 °F 19.0 °F 54% 29.95 in 10.0 mi North 11.5 mph - N/A   Clear
8:53 AM 37.9 °F 30.5 °F 19.9 °F 48% 29.97 in 10.0 mi North 11.5 mph - N/A   Clear
9:53 AM 43.0 °F 36.4 °F 21.9 °F 43% 29.97 in 10.0 mi North 12.7 mph 20.7 mph N/A   Clear
10:53 AM 46.0 °F 41.0 °F 21.9 °F 39% 29.98 in 10.0 mi NNE 10.4 mph - N/A   Clear
11:53 AM 50.0 °F - 21.9 °F 33% 29.96 in 10.0 mi NNE 5.8 mph - N/A   Clear
12:53 PM 53.1 °F - 21.9 °F 30% 29.94 in 10.0 mi Variable 3.5 mph - N/A   Clear
1:53 PM 55.0 °F - 21.0 °F 27% 29.90 in 10.0 mi Calm Calm - N/A   Clear
2:53 PM 55.9 °F - 19.9 °F 25% 29.89 in 10.0 mi NW 3.5 mph - N/A   Clear
3:53 PM 57.0 °F - 19.0 °F 23% 29.87 in 10.0 mi NE 3.5 mph - N/A   Clear
4:53 PM 55.9 °F - 18.0 °F 23% 29.87 in 10.0 mi South 3.5 mph - N/A   Clear
6:53 PM 48.0 °F - 19.0 °F 32% 29.90 in 10.0 mi South 4.6 mph - N/A   Clear
7:53 PM 45.0 °F 43.5 °F 19.0 °F 36% 29.91 in 10.0 mi SSE 3.5 mph - N/A   Clear
8:53 PM 37.9 °F 35.5 °F 18.0 °F 45% 29.93 in 10.0 mi South 3.5 mph - N/A   Clear
9:53 PM 37.0 °F 32.4 °F 18.0 °F 46% 29.92 in 10.0 mi South 5.8 mph - N/A   Clear
10:53 PM 33.1 °F 26.1 °F 18.0 °F 54% 29.91 in 10.0 mi SSW 8.1 mph - N/A   Clear
11:53 PM 32.0 °F 26.4 °F 18.0 °F 56% 29.90 in 10.0 mi SSW 5.8 mph - N/A   Clear